Location: Dainville
(50.2810°N, 2.7260°E)
Time: 23:02:17
(UTC+00:00)

Daily predictions for brighter satellites

Satellite Brightness Start Highest point End
(mag) Time Altitude Azimuth Time Altitude Azimuth Time Altitude Azimuth
Cosmos 2026 Rocket 4.4 16:19:42 10° N 16:25:25 38° ENE 16:31:01 10° SE
Cosmos 2322 Rocket 3.7 16:23:57 10° N 16:27:31 17° NNE 16:31:06 10° ENE
Cosmos 1743 Rocket 3.7 16:23:33 10° N 16:27:48 53° ENE 16:32:02 10° SSE
USA 305 3.3 16:24:02 10° W 16:28:11 51° N 16:32:21 10° ENE
Cosmos 1697 Rocket 2.7 16:23:41 10° NNW 16:29:19 71° ENE 16:34:55 10° SE
CZ-4B R/B 2.8 16:26:27 10° SSE 16:30:23 61° ENE 16:34:09 10° N
Cosmos 1933 4.2 16:27:38 10° SSE 16:31:10 30° E 16:34:43 10° NNE
Cosmos 1980 Rocket 2.5 16:28:32 10° NNW 16:34:00 46° NE 16:39:25 10° SE
Cosmos 1271 Rocket 4.1 16:30:47 10° SW 16:34:33 41° WNW 16:38:22 10° N
SL-08 R/B 3.3 16:30:07 10° NNE 16:34:51 70° ESE 16:39:28 10° S
Okean O Rocket 3.1 16:34:47 10° E 16:37:39 17° ENE 16:40:32 10° NNE
Cosmos 2369 3.8 16:32:44 10° NNW 16:38:26 59° NE 16:44:04 10° SE
Cosmos 540 Rocket 4.1 16:33:52 10° SSE 16:38:28 35° ESE 16:43:05 10° NE
SJ 16-02 4.0 16:35:16 10° NW 16:38:46 24° W 16:42:16 10° SSW
FengYun 1-2 T 4.2 16:33:29 10° SSE 16:39:00 66° ENE 16:44:30 10° N
SL-16 R/B 3.3 16:41:59 10° NNW 16:46:28 23° NE 16:50:57 10° E
Cosmos 1812 4.2 16:44:01 10° SE 16:46:37 18° E 16:48:49 12° NE
Meteor PRIRODA 3.7 16:43:01 10° SSE 16:46:39 84° WSW 16:50:18 10° NNW
ERBS 3.4 16:44:15 10° W 16:47:10 31° NNW 16:49:40 13° NE
NOAA 12 4.1 16:42:10 10° SSE 16:47:30 88° ENE 16:52:51 10° NNW
CORIOLIS 4.2 16:45:43 10° SSE 16:51:02 61° ENE 16:56:23 10° N
Cosmos 2082 Rocket 3.0 16:47:19 10° SSE 16:52:17 32° ESE 16:56:54 12° NE
Meteor 1-25 Rocket 4.2 16:48:59 10° N 16:54:36 82° ENE 17:00:13 10° SSE
Cosmos 1500 Rocket 3.8 16:51:30 10° NNW 16:55:58 78° W 17:00:20 10° S
Cosmos 468 Rocket 3.9 16:52:17 10° SSW 16:57:26 79° ESE 17:02:40 10° NNE
Cosmos 2333 Rocket 4.0 16:56:05 10° N 16:58:49 13° NNE 17:00:43 12° NE
USA 306 3.3 16:56:20 10° WNW 17:00:30 50° N 17:03:34 17° ENE
Cosmos 1898 Rocket 3.9 16:56:09 10° NNW 17:01:23 69° WSW 17:06:33 10° SSE
Cosmos 2278 3.8 16:56:28 10° NNW 17:02:05 53° NE 17:07:38 10° SE
Cosmos 1818 3.9 16:57:45 10° NNW 17:03:01 44° NE 17:08:13 10° ESE
Cosmos 1602 3.6 16:59:12 10° N 17:03:05 79° E 17:06:57 10° SSE
Sich 1 3.0 16:58:57 10° N 17:03:12 61° ENE 17:07:28 10° SSE
CZ-4B DEB 4.2 16:58:26 10° SSE 17:03:53 67° ENE 17:09:20 10° N
Cosmos 2221 3.6 17:00:47 10° SSW 17:04:54 45° WNW 17:09:04 10° N
Cosmos 1939 Rocket 2.9 17:01:24 10° SSE 17:05:31 87° WSW 17:09:36 10° NNW
ARGOS 3.7 17:02:32 10° SE 17:07:22 35° ENE 17:12:13 10° N
Cosmos 1805 Rocket 3.5 17:03:32 10° N 17:07:54 86° E 17:12:14 10° S
Cosmos 1833 Rocket 2.7 17:06:19 10° SSW 17:11:56 85° ESE 17:17:33 10° NNE
NOSS 2-2 (C) 4.4 17:10:35 10° NW 17:15:36 82° SW 17:22:40 10° SE
COSMOS 2406 3.2 17:10:09 10° SSW 17:15:52 74° ESE 17:21:11 12° NNE
GEOS 3 Rocket 4.3 17:13:44 17° E 17:17:10 35° NNE 17:21:51 10° NNW
deb Chang Zheng 4 3.9 17:14:34 10° SE 17:18:36 40° ENE 17:22:39 10° N
USA 307 3.2 17:15:34 10° WNW 17:19:44 51° N 17:21:59 25° ENE
Cosmos 2219 Rocket 4.0 17:16:59 10° N 17:19:46 14° NNE 17:20:35 13° NE
USA 267 3.3 17:16:34 17° ENE 17:21:47 79° SE 17:28:20 10° SW
Cosmos 1092 Rocket 4.2 17:15:42 10° NNW 17:22:04 77° W 17:28:22 10° S
CZ-2C R/B 4.3 17:17:31 10° S 17:22:07 42° W 17:26:39 10° NNW
Cosmos 1782 2.7 17:19:41 10° S 17:23:39 71° E 17:27:38 10° NNE
CZ-2C R/B 3.1 17:21:47 13° NNE 17:26:04 37° E 17:30:49 10° SSE
Cosmos 1500 3.1 17:24:02 10° NNW 17:27:48 84° W 17:31:31 10° S
Cosmos 1763 Rocket 4.0 17:23:55 10° SW 17:28:55 58° WNW 17:34:01 10° NNE
Cosmos 2150 Rocket 4.4 17:24:22 10° NNW 17:29:12 38° NE 17:33:12 14° ESE
SL-08 RB Rocket 4.3 17:25:32 10° SE 17:29:40 33° ENE 17:33:48 10° N
CZ-4C R/B 2.9 17:22:38 10° NW 17:29:41 85° NE 17:38:04 10° SE
CZ-2D R/B 3.1 17:26:07 10° SSE 17:29:56 83° ENE 17:33:47 10° NNW
Meteor 2-16 Rocket 4.4 17:24:52 10° N 17:30:59 67° ENE 17:37:04 10° SSE
H-2A R/B 1.9 17:28:05 10° SSE 17:33:13 80° ENE 17:38:16 10° NNW
CZ-4B R/B 3.1 17:29:20 10° SSE 17:34:40 66° ENE 17:39:58 10° N
Cosmos 841 Rocket 3.4 17:31:06 10° SSW 17:36:15 80° ESE 17:40:21 16° NNE
PAYLOAD B 4.2 17:30:53 10° SSE 17:36:31 89° WSW 17:42:09 10° NNW
ATLAS CENTAUR R/B 3.7 17:34:25 10° NW 17:37:11 16° NNW 17:39:25 12° NNE
USA 308 3.1 17:38:10 10° WNW 17:42:21 55° N 17:43:39 38° ENE
SMAP 4.3 17:38:28 10° S 17:42:55 44° W 17:47:24 10° NNW
Lacrosse 5 rocket 1.1 17:39:27 10° NW 17:43:20 73° NNE 17:44:49 37° ESE
COSMO-SKYMED 1 2.8 17:41:39 29° NE 17:43:28 47° E 17:47:39 10° S
Cosmos 1125 Rocket 3.7 17:39:24 10° NNW 17:44:27 45° ENE 17:47:31 22° ESE
Cosmos 2142 Rocket 4.4 17:39:22 10° S 17:45:29 72° E 17:51:43 10° NNE
Cosmos 921 Rocket 4.1 17:42:45 10° SSE 17:45:22 26° SE 17:45:22 26° SE
COSMOS 2455 2.8 17:42:34 10° SSW 17:48:36 85° ESE 17:52:28 24° NE
Cosmos 1633 Rocket 2.9 17:45:54 10° N 17:50:19 85° E 17:54:42 10° S
ATLAS 2AS CENTAUR R/B 4.0 17:44:18 10° WNW 17:50:48 29° N 17:54:01 21° NE
Cosmos 2279 Rocket 3.9 17:44:44 10° S 17:50:54 74° E 17:57:07 10° NNE
ISS -2.1 17:48:01 10° W 17:51:05 31° SSW 17:53:03 17° SSE
Cosmos 2360 Rocket 3.0 17:47:02 10° NNW 17:52:00 30° NE 17:52:12 30° NE
Cosmos 2266 Rocket 4.1 17:46:44 10° N 17:53:00 54° ENE 17:59:16 10° SSE
Cosmos 44 Rocket 3.1 17:48:04 10° NW 17:53:03 80° NE 17:56:04 23° SE
YAOGAN 1 3.6 17:56:50 29° NNE 17:56:50 29° NNE 17:59:17 10° N
CZ-4 R/B 3.6 17:59:29 13° N 17:59:29 13° N 18:00:02 10° N
Meteor 1-11 Rocket 3.8 17:51:21 10° N 17:56:49 49° ENE 18:02:20 10° SSE
USA 234 4.0 17:50:33 10° SE 17:56:54 52° SW 18:03:17 10° WNW
Cosmos 1666 2.8 17:53:21 10° NNW 17:57:04 70° W 18:00:45 10° S
Meteor 1-10 Rocket 4.4 17:52:45 10° SSE 17:58:15 47° E 18:00:37 30° NE
Cosmos 1151 Rocket 3.0 17:57:25 10° S 18:01:45 85° WNW 18:04:41 21° N
COSMOS 2428 4.4 18:00:57 10° N 18:03:52 18° NNE 18:03:52 18° NNE
CZ-4 R/B 4.4 18:03:29 10° SSE 18:07:37 87° WSW 18:11:48 10° NNW
SKYMED 3 4.4 18:06:03 39° NNE 18:07:39 80° ESE 18:12:00 10° SSW
USA 305 2.8 18:04:12 10° WNW 18:08:27 66° NNE 18:08:40 64° NE
Cosmos 1900 4.3 18:06:39 10° SSW 18:11:25 59° ESE 18:11:48 57° E
Cosmos 2322 Rocket 2.2 18:07:17 10° NNW 18:12:54 55° NE 18:13:54 49° E
Okean O Rocket 1.8 18:09:02 10° S 18:13:30 74° WSW 18:17:58 10° NNW
Feng Yun 1-1 Rocket 4.2 18:08:50 10° SSE 18:14:44 76° ENE 18:20:35 10° NNW
Meteor 2-15 4.3 18:09:32 10° S 18:15:36 71° E 18:21:06 13° NNE
Landsat 5 3.8 18:16:56 51° SSE 18:16:56 51° SSE 18:20:02 10° S
Cosmos 1980 Rocket 3.7 18:12:45 10° NW 18:17:55 37° WSW 18:23:02 10° S
Cosmos 1470 Rocket 3.6 18:15:56 10° NNW 18:20:25 81° W 18:24:54 10° S
Cosmos 1812 3.8 18:18:21 10° SSW 18:22:02 43° WNW 18:23:53 25° NNW
Cosmos 1328 Rocket 3.7 18:18:03 10° SSW 18:22:29 75° WNW 18:24:03 40° N
Spot 2 4.3 18:20:29 22° SSE 18:23:48 75° ENE 18:28:56 10° NNW
SL-16 R/B 2.1 18:25:40 10° NNW 18:31:23 90° SSE 18:33:21 43° SSE
SKYMED 2 4.0 18:30:16 41° NNW 18:31:35 61° WNW 18:35:52 10° SSW
Cosmos 1570 Rocket 4.2 18:28:29 10° SSW 18:33:42 67° WNW 18:35:28 41° N
Cosmos 2237 Rocket 4.3 18:31:19 10° N 18:32:29 12° N 18:32:29 12° N
Cosmos 1655 Rocket 4.1 18:28:08 10° NNW 18:34:33 79° W 18:40:54 10° S
Cosmos 2298 Rocket 4.2 18:29:25 10° NNW 18:34:45 70° WSW 18:38:49 17° S
Cosmos 1814 Rocket 4.5 18:30:23 10° SW 18:35:31 57° WNW 18:37:31 35° N
Cosmos 2082 Rocket 2.9 18:30:37 10° SW 18:36:09 52° NW 18:38:46 30° N
ATLAS CENTAUR R/B 2.7 18:30:48 10° WSW 18:37:41 51° NNW 18:37:45 51° NNW
USA 306 3.6 18:36:24 10° WNW 18:39:34 49° WNW 18:39:34 49° WNW
Cosmos 2333 Rocket 3.5 18:39:30 10° NNW 18:42:43 28° N 18:42:43 28° N
Cosmos 1818 4.5 18:41:26 10° NW 18:46:39 46° WSW 18:49:43 23° S
ARGOS 4.3 18:42:25 10° S 18:47:33 43° W 18:52:42 10° NNW
GEOS 3 Rocket 3.7 18:54:52 71° SW 18:54:58 71° SW 19:00:11 10° NW
USA 307 4.5 18:55:36 10° WNW 18:58:01 33° WNW 18:58:01 33° WNW
USA 267 3.5 19:03:55 54° NNE 19:04:41 57° NNW 19:11:03 10° W
Cosmos 2219 Rocket 3.8 19:00:01 10° NNW 19:02:19 23° N 19:02:19 23° N
CZ-2C R/B 3.9 19:03:18 19° N 19:06:23 37° WNW 19:11:05 10° SW
ATLAS CENTAUR R/B 4.4 19:15:12 10° NNW 19:15:31 11° NNW 19:15:31 11° NNW
Lacrosse 5 rocket 3.9 19:18:52 10° WNW 19:20:27 19° W 19:20:27 19° W
COSMOS 2455 4.3 19:30:02 10° W 19:35:15 29° NNW 19:35:38 29° NNW
Cosmos 2360 Rocket 3.6 19:30:49 10° NW 19:33:59 34° NW 19:33:59 34° NW
NOSS 3-4 (A) 4.5 19:33:43 10° NW 19:38:11 44° NNW 19:38:11 44° NNW
NOSS 3-4 (C) 4.5 19:33:49 10° NW 19:38:16 44° NNW 19:38:16 44° NNW
ATLAS 2AS CENTAUR R/B 3.9 19:36:36 10° NW 19:41:27 35° N 19:41:27 35° N
Cosmos 2322 Rocket 3.9 19:51:47 10° NW 19:55:46 29° W 19:55:46 29° W
